User: anonymous   Login
Location: Newark
(48.8604°N, 2.3376°E)
Time: 03:53:57
(UTC+00:00)
Language:

CUTE-I - Orbit

View from above orbital plane
View from above orbital plane
View from above satellite
View from above satellite

Ground track
Ground track

The orbit data is extracted from the following two-line orbital elements,

1 27844U 03031E   21339.63002280  .00000094  00000-0  61736-4 0  9991
2 27844  98.6804 345.2514 0009005 307.0955  52.9399 14.22356033956353
Epoch (UTC): 05 December 2021 15:07:13
Eccentricity: 0.0009005
inclination: 98.6804°
perigee height: 811 km
apogee height: 824 km
right ascension of ascending node: 345.2514°
argument of perigee: 307.0955°
revolutions per day: 14.22356033
mean anomaly at epoch: 52.9399°
orbit number at epoch: 95635

The dashed part of the orbit path shows where the satellite is in the earth's shadow,  

DLR